Location: Bazugues
(43.4465°N, 0.3432°E)
Time: 05:56:27
(UTC+00:00)

Cosmos 2366 rocket - Pass Details

Date: 12 January 2026
Orbit: 955 x 995 km, 82.9° (Epoch: 10 February)

Event Time Altitude Azimuth Distance (km) Brightness Sun altitude
Rises 17:44:34 0° 354° (N) 3,709 6.9 -10.8°
Reaches altitude 10° 17:47:08 10° 358° (N) 2,761 6.2 -11.2°
Maximum altitude 17:53:26 63° 79° (E) 1,103 4.0 -12.3°
Drops below altitude 10° 17:59:42 10° 161° (SSE) 2,753 6.3 -13.4°
Sets 18:02:15 0° 164° (SSE) 3,698 7.0 -13.8°
